Location: Sungai Laei
(2.6000°N, 113.7167°E)
Time: 11:43:56
(UTC+00:00)

BLOCK DM-SL R/B - Pass Details

Date: 22 May 2022
Orbit: 935 x 35718 km, 0.8° (Epoch: 06 July)

Event Time Altitude Azimuth Distance (km) Brightness Sun altitude
Exits shadow 21:34:04 - 268° (W) 7,773 7.5 -10.2°
Reaches altitude 10° 21:37:13 10° 268° (W) 6,499 7.1 -9.5°
Maximum altitude 21:50:16 74° 183° (S) 1,258 4.1 -6.5°
Drops below altitude 10° 21:55:15 10° 98° (E) 2,633 6.9 -5.3°
Sets 21:57:19 0° 95° (E) 3,612 7.8 -4.8°
